Weather in Ozernoye

Russia / Orenburg Oblast     51°47′26″N   51°27′27″E
temp.,
°C
wind,
m/s
gust,
m/s
humid.,
%
clouds,
%
prec.,
mm/h
press.,
hPa
HPBL,
m
28 february, sun
sun2823:000wsw5998100 0.3 1000465
02:000wsw5998100 0.4 999425
05:00−1w6997100 1.9 1000397
08:00−13nw6119296 0.1 1002333
11:00−13nw7119298 0.3 1004444
14:00−13nw71092100 0.1 1007416
17:00−13nw61091100 0.1 1009446
20:00−16nw499498 0.0 1012199
1 march, mon
mon123:00−18nw469580 0.0 101494
02:00−19wnw45965 0.0 101580
05:00−20nw45978 0.0 101777
08:00−17nw379680 0.1 1018178
11:00−16nw469378 0.1 1020255
14:00−15nw469165 0.0 1021284
17:00−15nw369255 0.0 1022303
20:00−19wnw339617 0.0 102326
2 march, tue
tue223:00−21wnw23979 0.0 102320
02:00−21w33980 0.0 102320
05:00−20sw349920 0.0 102138
08:00−19ssw479879 0.0 1019122
11:00−14ssw6109688 0.1 1016298
14:00−9ssw81394100 0.1 1013498
17:00−4sw91595100 0.9 1009812
20:00−3sw81495100 0.8 1006749
3 march, wed
wed323:00−3sw71396100 1.8 1004635
02:00−2sw61196100 0.6 1002405
05:00−1w599599 1.0 1002330
08:00−4w479598 0.0 1002222
11:00−7w489592 0.0 1003248
14:00−3wnw5892100 0.0 1004486
17:00−3wnw6891100 0.1 1005580
20:00−4w5109499 0.1 1006285
4 march, thu
thu423:00−6wnw479695 0.1 1008132
02:00−7wnw469261 0.0 100899
05:00−8nw499558 0.0 1010157
08:00−10nw599430 0.0 1012191
11:00−9nw489323 0.0 1015257
14:00−8wnw479144 0.0 1017330
17:00−7wsw499124 0.0 1017327
20:00−10sw5129316 0.0 1017254